Skip Page Navigation
NASA JPL Caltech
NASA Logo - Jet Propulsion Laboratory + View the NASA Portal
+ Center for Near-Earth Object Studies
JPL Home Earth Solar System Stars & Galaxies Technology
JPL Solar System Dynamics
BODIES ORBITS EPHEMERIDES TOOLS PHYSICAL DATA DISCOVERY FAQ SITE MAP
JPL Small-Body Database Browser
Search: [ help ]  
102036 (1999 RT108)
Classification: Main-belt Asteroid          SPK-ID: 2102036
Ephemeris | Orbit Diagram | Orbital Elements | Mission Design | Physical Parameters | Discovery Circumstances ]

[ show orbit diagram ]
Orbital Elements at Epoch 2459200.5 (2020-Dec-17.0) TDB
Reference: JPL 19 (heliocentric ecliptic J2000)
 Element Value Uncertainty (1-sigma)   Units 
e .1293976133233899 4.016e-08  
a 2.218289538359432 7.9485e-09 au
q 1.931248166435477 8.8066e-08 au
i 5.326947378521253 4.5448e-06 deg
node 274.8728363178586 5.0912e-05 deg
peri 78.14209063865421 5.5159e-05 deg
M 156.9984413379605 1.9246e-05 deg
tp 2458674.217882427424
(2019-Jul-09.71788243)
6.4468e-05 TDB
period 1206.773524065029
3.30
6.4861e-06
1.776e-08
d
yr
n .2983161237970621 1.6034e-09 deg/d
Q 2.505330910283387 8.977e-09 au
  Orbit Determination Parameters
   # obs. used (total)      624  
   data-arc span      7802 days (21.36 yr)  
   first obs. used      1999-09-07  
   last obs. used      2021-01-16  
   planetary ephem.      DE431  
   SB-pert. ephem.      SB431-N16  
   condition code      0  
   norm. resid. RMS      .49504  
   source      ORB  
   producer      Otto Matic  
   solution date      2021-Feb-24 08:30:24  

Additional Information
 Earth MOID = .932371 au 
 Jupiter MOID = 2.90348 au 
 T_jup = 3.635 
[ show covariance matrix ]

Ephemeris | Orbit Diagram | Orbital Elements | Mission Design | Physical Parameters | Discovery Circumstances ]

Physical Parameter Table
Parameter Symbol Value Units Sigma Reference Notes
absolute magnitude H 16.3   n/a MPO248024  
diameter diameter 1.500 km 0.278 urn:nasa:pds:neowise_diameters_albedos::2.0[mainbelt] (http://adsabs.harvard.edu/abs/2011ApJ...741...68M)  
geometric albedo albedo 0.260   0.119 urn:nasa:pds:neowise_diameters_albedos::2.0[mainbelt] (http://adsabs.harvard.edu/abs/2011ApJ...741...68M)  

102036 (1999 RT108)          Discovered 1999-Sep-08 by LINEAR at Socorro
Reference: 20051019/Numbers.arcLast Updated: 2005-10-26
Ephemeris | Orbit Diagram | Orbital Elements | Mission Design | Physical Parameters | Discovery Circumstances ]
ABOUT SSD CREDITS/AWARDS PRIVACY/COPYRIGHT GLOSSARY LINKS
FirstGov 2021-Mar-09 02:15 UT
(server date/time)  
NASA Home Page
Site Manager:   Ryan S. Park
Webmaster  Alan B. Chamberlin